THOR ABLESTAR DEB, 715

Orbit data source: Space-Track

THOR ABLESTAR DEB, 715 is space debris in LEO originally from a launch on Thu, 05 Dec 1963 UTC launched from the Air Force Western Test Range (AFWTR). Debris objects in space refer to the collection of defunct objects orbiting the Earth. Examples of debris include non-operational satellites, rocket bodies, and fragments generated from explosions, collisions, or faulty payload assembly.

Loading next visibility...
Identifier
715, 1963-049E
Orbit
LEO
Country
Flag of USUS
Related business
Manufacturer
Unknown
Mission
Spacecraft
Bus & Motor
Unknown
Mass
Unknown
Launch date (UTC)
1963-12-05 (62 years ago)
Launch vehicle
Unknown
Launch site
Air Force Western Test Range (AFWTR)
Object type
Payload
Rocket body
Debris
Shape & HBR
Unknown
Radar Cross Section
Small (<0.1 m²)

Expand to show TLE details & history
Last TLE update: 22 hours ago

TLE from 22 hours ago
0 THOR ABLESTAR DEB
1 00715U 63049E   25260.00652580  .00000725  00000-0  74612-3 0  9993
2 00715  89.9047  80.1787 0027953 265.5371 250.3410 13.75093109 65833
Epoch: 2025-09-17T00:09Z
TLE epoch observation values (Epoch: 2025-09-17T00:09:23.829Z)
Latitude
24.44666°
Longitude
-98.40236°
Altitude
991.358 km
Speed
7.355 km/s
True Right ascension
17h 20m 32s
True Declination
24° 19' 17"
Sunlit
Object was in daylight at epoch
Visualization orbit readout
Latitude
Unknown
Longitude
Unknown
Altitude
Unknown
Speed
Unknown
Apparent Right ascension
Unknown
Apparent Declination
Unknown
Sunlit
N/A
Visualization observer readout
Local Sidereal Time
14:37:58
Azimuth
Unknown
Elevation
Unknown
Doppler factor
Unknown
Orbital elements
Apogee altitude
998.919 km
Perigee altitude
957.792 km
Semi-major axis
7,356.493 km
Eccentricity
0.0028
Inclination
89.9047°
RAAN
80.1787°
Arg. of periapsis
265.5371°
True anomaly
250.03971°
Mean anomaly
250.341°
Eccentric anomaly
250.19032°
Mean motion
3.43983 °/min
Orbital period
104.66 mins
BSTAR
0.00074612
Loading maneuver chart data...
Computing Atmospheric mass density...
Loading historical data...
Loading historical data...
Loading historical data...
Loading historical data...
Loading historical data...
Loading historical data...
Loading historical data...

Documentation

Showing up to 5 results
|